Regional Weather Roundup
Issued by NWS

Home | Current Version | Previous Version | Graphics & Text | Print | Product List | Glossary On
Versions: 1 2 3 4 5 6 7 8 9 10 11 12 13 14 15 16 17 18 19 20 21 22 23 24 25 26 27 28 29 30 31 32 33 34 35 36 37 38 39 40 41 42 43 44 45 46 47 48 49 50
725
ASUS45 KSLC 162010
RWRUT

UTAH REGIONAL WEATHER ROUNDUP
NATIONAL WEATHER SERVICE SALT LAKE CITY UT
100 PM MST MON JAN 16 2017

UTZ001>011-023>025-162100-

NORTHERN UTAH

CITY           SKY/WX    TMP DP  RH WIND       PRES   REMARKS
BRIGHAM CITY     N/A     21  13  72 CALM      30.30F
HILL AFB       SUNNY     22  11  62 E10       30.25F WCI  11
LOGAN          SUNNY      9   6  88 CALM      30.32F FOG
OGDEN          SUNNY     25  14  63 CALM      30.27F
SALT LAKE CITY MOSUNNY   28  18  66 MISG      30.27F
TOOELE VALLEY  CLOUDY    27  21  80 N7        30.29F HAZE    WCI  19
WENDOVER       SUNNY     27  19  74 CALM      30.29F
HEBER CITY     SUNNY     19   9  63 CALM      30.22F
WEST JORDAN    PTSUNNY   27  24  89 NW3       30.27F

$$

UTZ011>015-024>027-162100-

CENTRAL/NORTHEAST UTAH

CITY           SKY/WX    TMP DP  RH WIND       PRES   REMARKS
PROVO AIRPORT  SUNNY     28  21  75 W6        30.27S WCI  22
MOAB/CANYONLAN SUNNY     42  27  55 VRB3      30.04F
DELTA          SUNNY     32  21  64 NW5       30.23F WCI  27
PRICE          SUNNY     38  13  35 N15       30.05F WCI  29
RICHFIELD      CLOUDY    32  21  64 N7        30.20F WCI  26
ROOSEVELT      SUNNY     32  21  64 E3        30.19F
VERNAL         CLOUDY    27  21  78 NE3       30.17F

$$

UTZ013>016-019>022-027-162100-

SOUTHERN UTAH

CITY           SKY/WX    TMP DP  RH WIND       PRES   REMARKS
BRYCE CANYON   SUNNY     26  17  68 N10       30.07F WCI  16
CEDAR CITY     PTSUNNY   31  19  61 N9        30.15F WCI  23
MILFORD        MOSUNNY   31  21  66 N14       30.20F WCI  21
ST GEORGE      CLEAR     45  23  42 SW7       30.14F
HANKSVILLE     SUNNY     43  27  52 MISG      30.09F
KANAB          SUNNY     45  27  49 S6        30.09F
BLANDING       PTSUNNY   41  29  60 S5        30.06S

$$

REGIONAL REPORTS     COLORADO/ARIZONA

CITY           SKY/WX    TMP DP  RH WIND       PRES   REMARKS
CRAIG, CO      CLOUDY    19  12  74 W6        30.14F WCI  11
GRAND JUNCTION PTSUNNY   40  16  37 CALM      30.05F
RIFLE, CO      CLOUDY    34  20  56 NW9       30.06F WCI  27
MONTROSE, CO   CLOUDY    33  19  56 NW7       30.07F WCI  27
CORTEZ, CO     CLOUDY    39  29  67 W9        29.97F WCI  33
COLORADO CITY    N/A     43  23  45 NW8       30.10F
PAGE, AZ       SUNNY     45  23  42 VRB3      30.04F
GRAND CANYON   PTSUNNY   39  31  72 W5        30.04F
KINGMAN, AZ    SUNNY     46  26  45 N12       30.07F
FLAGSTAFF, AZ  PTSUNNY   38  27  64 CALM      30.02F

$$

REGIONAL REPORTS    NEVADA/IDAHO/WYOMING

CITY           SKY/WX    TMP DP  RH WIND       PRES   REMARKS
LAS VEGAS, NV  MOSUNNY   53  19  26 NE10      30.11F
ELY, NY        CLOUDY    21  15  78 VRB3      30.22F
ELKO, NV       CLOUDY    24  17  74 VRB3      30.29F
POCATELLO, ID  CLOUDY     7   1  76 W3        30.35F
BURLEY, ID     SUNNY     17  11  77 VRB3      30.32F
FORT BRIDGER,    N/A     -1  -2  95 CALM      30.19F
EVANSTON, WY   CLOUDY     5   1  83 S3        30.15F
ROCK SPRINGS,  CLOUDY     3  -3  76 CALM      30.16F HAZE

$$




USA.gov is the U.S. government's official web portal to all federal, state and local government web resources and services.